Wetbulb
55.74 55.70 59.07 58.30 58.38 57.01 56.81 56.31 55.88 55.32 56.31 56.89 57.51 58.13 58.31 58.40 58.74 58.42 59.51 61.12 61.32 61.53 61.49 60.79 60.89 61.14 60.77 60.55 61.03 60.89 60.03 59.84 57.98 59.85 61.66 61.62 62.26 62.42 61.62 60.99 61.07 60.08 59.58
55.54 55.95 58.12 58.56 58.56 57.19 56.25 56.00 56.03 56.27 56.81 57.73 58.61 58.71 58.82 58.54 58.44 59.82 58.87 59.49 60.88 60.89 61.33 61.41 60.68 61.14 60.44 60.53 60.58 59.96 60.10 60.72 59.52 58.40 60.54 60.80 60.37 60.53 60.49 59.31 59.39 59.11 57.69
54.69 55.11 57.56 57.68 57.47 56.84 56.21 56.67 56.77 56.59 57.13 58.33 58.85 58.87 58.82 58.84 59.08 58.48 58.87 58.49 59.24 60.99 61.02 61.58 60.95 60.68 60.38 60.56 60.64 60.38 60.71 60.86 60.50 59.48 59.15 59.69 59.71 59.37 58.36 57.49 55.77 54.71 55.81
53.43 56.17 56.75 56.51 57.28 57.24 57.01 57.13 57.17 57.67 57.77 57.87 58.57 59.81 59.55 59.37 59.30 58.86 58.52 59.26 59.83 60.76 61.38 61.68 60.62 60.97 60.53 60.35 60.57 60.32 60.52 60.26 60.16 59.58 59.09 57.66 57.12 56.87 55.94 55.59 55.36 54.14 53.14
52.88 56.25 56.78 56.12 57.06 57.55 57.50 57.43 57.68 57.58 58.10 58.69 59.43 59.68 59.49 59.55 59.97 58.39 58.42 58.28 59.54 60.31 61.03 61.55 61.08 60.51 59.38 59.43 60.97 60.44 60.44 59.94 59.63 57.82 56.49 55.35 53.99 52.82 53.28 52.80 53.08 52.51 53.53
52.61 56.27 56.65 55.83 57.11 57.56 56.18 56.46 56.92 57.27 58.01 58.49 58.45 58.93 58.77 60.47 49.80 53.86 58.50 60.21 60.35 60.24 60.45 60.49 60.20 58.86 57.02 55.31 55.77 56.03 59.22 59.51 57.50 55.85 54.35 54.61 53.27 53.33 51.36 50.90 51.90 51.43 50.67
52.60 55.43 56.36 56.02 57.20 57.08 56.36 56.69 56.54 55.06 54.98 56.23 56.11 56.72 57.25 56.67 48.54 50.17 54.16 60.77 60.19 59.57 60.61 60.75 61.44 60.82 60.16 60.69 54.46 54.52 54.70 54.07 54.53 56.47 54.40 53.77 53.25 53.27 52.18 50.71 50.95 51.35 51.81
52.44 54.45 54.24 55.18 56.32 56.07 55.39 55.70 53.63 53.06 53.64 53.30 53.47 54.20 56.59 55.17 47.45 49.26 53.43 60.86 60.15 60.27 60.41 60.91 60.54 60.35 59.67 59.49 59.52 58.88 56.95 56.68 55.98 57.32 56.22 55.14 54.41 54.77 54.64 54.13 53.49 52.96 53.50
52.75 53.41 53.03 55.20 55.05 54.60 54.19 54.71 52.79 52.31 51.32 51.85 52.08 53.38 54.65 53.68 46.34 47.09 56.03 59.86 59.51 59.10 59.61 60.08 60.51 60.02 50.13 49.64 56.86 53.87 50.14 49.82 46.58 47.23 49.54 45.71 47.05 49.04 52.67 56.39 54.57 54.31 51.41
53.97 53.83 53.00 54.36 55.67 54.31 54.40 53.98 52.89 51.90 51.57 52.15 51.10 51.28 50.31 51.68 44.64 46.54 55.35 58.10 56.21 56.39 56.39 56.05 51.60 56.67 45.18 44.50 53.80 50.33 49.57 48.24 47.15 47.08 45.56 43.31 45.36 45.56 49.29 54.67 54.87 50.44 45.24
55.20 54.09 52.54 52.83 56.28 55.13 54.67 54.41 52.93 52.16 51.41 50.36 50.96 49.34 48.68 50.65 49.68 45.55 48.99 56.88 56.25 53.82 54.14 52.93 52.27 44.99 42.48 42.78 46.81 51.35 49.86 48.32 45.77 48.66 48.88 49.26 48.38 49.19 49.38 47.91 47.10 47.46 47.51
54.93 54.52 52.22 51.29 57.02 56.72 55.14 54.80 53.68 52.80 50.99 49.78 49.28 48.63 48.59 46.72 45.41 44.58 45.52 49.46 49.44 52.72 52.70 52.26 48.84 41.85 41.69 42.02 46.08 43.98 42.91 45.90 48.07 50.97 51.19 50.70 50.73 49.79 47.46 48.30 48.66 48.83 49.49
53.81 53.91 52.26 51.15 53.55 57.05 55.42 54.81 54.53 53.08 51.79 50.47 49.73 48.89 49.15 47.53 44.36 42.11 42.97 43.49 45.17 50.58 51.81 49.30 41.84 40.05 39.70 40.95 39.72 39.42 41.66 47.37 50.94 50.95 50.04 48.37 47.66 46.87 46.07 46.21 46.95 46.37 45.49
52.53 52.23 52.19 51.88 52.32 56.17 57.20 56.56 56.08 54.59 53.42 53.24 51.48 49.65 49.14 47.76 44.95 41.32 44.44 46.57 45.87 48.07 45.20 42.93 41.64 41.38 41.61 41.08 41.21 42.48 45.33 49.22 50.76 50.27 47.48 45.65 44.68 44.40 43.72 43.38 43.66 42.47 43.08
52.10 51.12 50.75 53.05 53.88 56.15 56.75 55.97 56.87 56.86 55.88 55.43 54.94 53.94 50.89 49.59 47.39 43.10 42.38 44.59 48.03 46.68 41.85 40.43 40.34 41.05 41.21 39.51 38.36 39.46 43.41 49.62 49.41 46.29 44.19 42.87 42.76 42.99 42.73 42.89 42.48 43.10 39.94
51.74 51.11 50.26 52.75 54.67 56.49 55.78 51.14 41.39 43.56 46.14 45.34 46.16 52.00 53.53 49.51 44.28 40.61 39.31 39.83 40.08 39.32 41.76 40.09 39.43 40.24 42.22 41.37 40.92 41.07 43.09 47.66 46.53 44.41 42.46 42.14 42.43 42.82 43.12 42.62 41.96 39.89 39.61
53.32 52.02 51.11 52.87 55.84 56.24 56.07 54.68 53.13 47.24 42.34 42.28 42.14 44.00 46.25 48.94 42.10 40.52 38.83 37.93 37.78 39.72 44.53 41.50 41.14 40.23 41.04 41.52 42.78 44.79 46.59 46.07 44.05 44.02 43.00 41.50 42.22 42.19 42.19 42.52 42.84 41.58 39.39
54.37 47.15 52.11 54.25 56.10 56.59 56.40 55.65 55.92 52.77 52.17 49.65 40.10 43.03 41.33 41.21 41.30 40.50 37.31 39.54 39.47 40.74 43.10 43.49 42.16 41.61 39.07 40.22 41.54 44.91 45.99 42.74 42.98 42.53 42.45 42.03 41.55 42.73 42.83 42.01 41.92 40.48 37.50
54.91 53.27 53.50 54.86 56.31 55.45 56.53 55.85 54.76 53.55 52.21 49.09 42.77 39.40 38.24 38.69 38.85 37.37 38.26 46.41 44.48 43.78 44.57 45.40 45.75 44.93 42.99 42.12 42.09 44.25 45.72 44.75 44.16 43.62 42.03 41.76 42.01 42.92 40.58 41.13 40.20 36.03 35.72
55.99 49.32 50.38 54.73 55.05 55.27 55.71 55.33 54.32 52.70 51.41 50.86 46.99 48.06 39.67 41.52 42.95 41.31 40.65 44.48 45.68 46.66 47.30 48.05 47.62 47.77 46.80 46.47 45.10 44.68 44.20 42.50 43.61 43.40 42.20 42.35 42.30 42.77 40.58 38.94 38.66 37.52 36.38
56.88 53.11 49.49 54.20 54.86 55.49 55.43 55.00 55.02 53.97 52.66 50.84 51.48 47.75 38.92 45.89 45.47 45.05 44.14 45.10 46.87 46.55 47.69 50.09 48.74 47.88 48.29 46.52 45.66 45.24 44.98 45.11 44.37 43.28 43.00 42.18 41.94 40.08 39.81 39.59 37.51 36.71 36.38
57.25 55.14 53.54 53.98 54.70 54.83 54.65 54.92 54.46 54.46 54.03 52.87 52.03 47.16 36.42 45.48 46.71 46.76 46.33 47.47 48.52 47.80 48.14 47.78 46.70 47.98 48.54 47.66 47.15 46.43 45.57 44.22 43.80 43.31 42.24 41.52 41.04 40.05 39.92 38.51 36.78 35.95 33.55
57.15 55.05 54.98 54.69 54.00 49.75 51.34 53.97 54.23 54.27 54.23 53.80 52.76 47.79 41.91 45.36 46.92 47.15 47.58 48.00 48.68 48.81 45.40 46.59 47.59 47.11 47.47 47.48 48.12 47.87 46.26 44.81 44.10 43.02 41.91 41.21 40.85 40.34 38.30 36.45 35.36 32.39 30.68
57.39 55.87 55.26 55.35 54.58 53.52 52.96 52.88 53.51 48.96 52.53 52.47 52.97 51.17 47.44 46.80 47.29 47.76 48.11 47.39 47.91 47.51 47.94 48.06 48.06 47.40 46.94 46.90 47.65 46.74 45.89 44.92 44.18 43.43 42.99 41.77 39.39 37.29 36.85 35.28 32.79 31.08 30.23
58.03 56.38 55.26 54.59 53.60 53.88 53.37 53.27 52.78 52.56 52.47 50.79 51.14 51.70 51.43 49.27 47.14 47.29 47.95 46.26 48.50 46.52 45.97 46.13 47.11 46.24 45.35 44.65 44.56 44.71 39.93 37.74 43.17 40.64 42.77 40.65 38.52 37.44 36.09 33.49 32.11 31.00 30.02
57.10 56.71 56.08 55.28 53.88 53.68 53.33 52.65 53.21 53.41 52.28 51.54 51.07 50.80 50.63 50.60 50.76 50.04 48.25 47.59 47.63 46.40 46.41 46.43 44.64 44.12 43.65 42.59 41.17 36.24 35.69 36.67 38.28 37.86 41.90 40.07 37.34 35.84 34.46 32.83 31.51 30.12 29.14
MSLP
1006.96 1007.05 1007.32 1007.73 1007.86 1008.16 1008.49 1008.79 1008.98 1009.12 1009.10 1009.16 1009.22 1009.48 1009.63 1009.82 1009.94 1010.14 1010.30 1010.28 1010.34 1010.56 1010.85 1011.15 1011.44 1011.67 1012.00 1012.66 1013.29 1014.01 1014.48 1014.89 1015.71 1016.45 1016.86 1017.78 1018.23 1018.68 1019.42 1019.65 1019.89 1020.04 1020.32
1006.83 1006.97 1007.26 1007.47 1007.73 1008.12 1008.51 1008.83 1009.03 1009.11 1009.14 1009.18 1009.36 1009.62 1009.78 1010.05 1010.29 1010.45 1010.66 1010.70 1010.74 1011.02 1011.25 1011.49 1011.88 1012.16 1012.64 1013.02 1013.64 1014.35 1014.85 1015.07 1015.62 1016.67 1017.59 1017.93 1018.06 1019.14 1019.42 1019.88 1020.07 1020.32 1020.66
1006.84 1006.96 1007.36 1007.51 1007.80 1008.24 1008.51 1008.84 1009.00 1009.16 1009.33 1009.38 1009.47 1009.74 1009.97 1010.29 1010.55 1010.70 1010.99 1011.19 1011.21 1011.44 1011.62 1011.83 1012.18 1012.40 1013.01 1013.45 1013.85 1014.64 1015.19 1015.77 1016.17 1016.98 1017.84 1018.31 1018.92 1019.40 1020.02 1020.28 1020.64 1020.76 1021.07
1006.79 1007.02 1007.35 1007.51 1007.88 1008.28 1008.54 1008.83 1009.06 1009.27 1009.48 1009.69 1009.79 1009.90 1010.15 1010.45 1010.78 1011.04 1011.36 1011.58 1011.69 1011.85 1012.01 1012.30 1012.64 1012.83 1013.28 1013.63 1014.35 1014.91 1015.63 1016.20 1016.79 1017.48 1018.15 1018.69 1019.22 1019.79 1020.09 1020.63 1020.95 1021.00 1021.04
1006.75 1007.02 1007.25 1007.58 1007.77 1008.36 1008.65 1008.98 1009.29 1009.59 1009.69 1009.78 1010.00 1010.32 1010.59 1010.85 1011.15 1011.46 1011.67 1011.91 1012.08 1012.40 1012.55 1012.80 1013.09 1013.38 1013.36 1014.08 1014.60 1015.28 1015.98 1016.60 1017.16 1017.80 1018.54 1019.16 1019.67 1020.03 1020.37 1020.60 1020.95 1021.31 1021.35
1006.70 1006.97 1007.21 1007.63 1007.97 1008.46 1008.82 1009.16 1009.33 1009.75 1009.93 1010.06 1010.23 1010.54 1010.95 1011.10 1011.39 1011.71 1011.92 1012.24 1012.54 1012.72 1013.01 1013.34 1013.67 1013.99 1014.34 1014.68 1015.02 1015.65 1015.92 1016.40 1017.14 1017.95 1018.66 1019.09 1019.41 1019.64 1020.24 1020.59 1021.12 1021.53 1021.68
1006.57 1006.86 1007.20 1007.54 1008.07 1008.42 1008.86 1009.28 1009.63 1009.98 1010.09 1010.33 1010.53 1010.74 1011.13 1011.43 1011.67 1011.95 1012.16 1012.50 1012.83 1013.17 1013.31 1013.70 1014.14 1014.61 1014.90 1015.21 1015.81 1016.11 1016.61 1017.05 1017.35 1017.56 1018.11 1018.46 1018.98 1019.35 1019.87 1020.49 1020.78 1021.19 1021.39
1006.50 1006.79 1007.10 1007.43 1007.92 1008.42 1008.92 1009.43 1009.79 1010.19 1010.44 1010.64 1010.90 1011.08 1011.36 1011.85 1012.04 1012.23 1012.51 1012.88 1013.26 1013.58 1013.80 1014.14 1014.48 1014.99 1015.40 1015.81 1016.02 1016.46 1017.01 1017.21 1017.30 1017.41 1017.48 1017.84 1018.31 1018.68 1018.98 1019.53 1020.18 1020.78 1021.31
1006.38 1006.68 1006.97 1007.29 1007.84 1008.51 1009.03 1009.50 1009.92 1010.30 1010.65 1010.87 1011.06 1011.32 1011.64 1012.14 1012.33 1012.55 1012.86 1013.15 1013.45 1013.95 1014.29 1014.54 1014.98 1015.41 1015.77 1016.19 1016.57 1017.03 1017.24 1017.31 1017.48 1017.55 1017.70 1018.16 1018.35 1018.45 1018.61 1019.22 1020.01 1020.64 1021.62
1005.99 1006.32 1006.71 1007.21 1007.67 1008.30 1008.85 1009.55 1009.90 1010.27 1010.64 1010.88 1011.30 1011.50 1011.74 1012.23 1012.63 1012.92 1013.31 1013.59 1014.06 1014.48 1014.77 1015.08 1015.42 1015.74 1016.14 1016.43 1016.78 1017.13 1017.31 1017.45 1017.60 1018.07 1018.42 1018.61 1018.63 1018.80 1018.64 1018.64 1019.51 1020.43 1021.02
1005.45 1006.02 1006.51 1006.98 1007.50 1007.99 1008.62 1009.20 1009.81 1010.42 1010.90 1011.21 1011.47 1011.77 1011.97 1012.16 1012.68 1012.88 1013.22 1013.65 1014.09 1014.65 1015.12 1015.50 1015.65 1015.96 1016.29 1016.52 1016.83 1017.19 1017.14 1017.35 1017.74 1017.98 1018.35 1018.64 1018.91 1019.24 1019.34 1019.39 1019.47 1019.53 1020.32
1005.07 1005.77 1006.31 1006.71 1007.19 1007.85 1008.40 1009.03 1009.59 1010.20 1010.87 1011.43 1011.81 1012.13 1012.35 1012.52 1012.68 1013.01 1013.18 1013.53 1014.03 1014.63 1015.14 1015.45 1015.68 1015.93 1016.31 1016.71 1017.02 1017.21 1017.07 1017.28 1017.74 1018.18 1018.73 1019.19 1019.57 1019.86 1019.91 1019.72 1019.81 1020.06 1020.34
1004.73 1005.46 1005.99 1006.50 1006.97 1007.53 1008.24 1008.92 1009.65 1010.08 1010.65 1011.38 1011.85 1012.33 1012.65 1012.88 1013.06 1013.29 1013.43 1013.60 1013.98 1014.45 1014.66 1015.13 1015.77 1016.22 1016.47 1016.82 1016.96 1017.05 1017.21 1017.43 1018.02 1018.63 1019.08 1019.59 1019.82 1019.90 1020.07 1020.39 1020.55 1020.71 1021.30
1004.29 1005.05 1005.69 1006.39 1006.93 1007.40 1007.92 1008.58 1009.28 1009.89 1010.45 1010.91 1011.51 1012.08 1012.41 1012.92 1013.44 1013.57 1013.76 1013.99 1014.25 1014.53 1015.09 1015.78 1016.19 1016.57 1016.78 1016.88 1017.33 1017.45 1017.42 1017.57 1017.89 1018.49 1019.19 1019.65 1020.07 1020.35 1020.60 1020.73 1021.33 1021.89 1022.62
1003.65 1004.55 1005.37 1006.02 1006.64 1007.29 1007.79 1008.24 1008.59 1008.92 1009.22 1010.10 1010.67 1011.18 1011.99 1012.66 1012.70 1012.89 1013.36 1013.96 1014.24 1014.65 1015.44 1016.12 1016.59 1016.88 1017.08 1017.39 1017.52 1017.54 1017.68 1017.88 1018.07 1018.60 1019.25 1019.78 1020.29 1020.66 1021.09 1021.15 1021.61 1022.21 1023.11
1003.24 1003.99 1004.78 1005.48 1006.30 1006.94 1007.67 1008.49 1008.74 1008.75 1008.91 1009.23 1009.54 1010.12 1010.95 1011.11 1011.61 1012.29 1012.78 1013.13 1013.66 1014.31 1015.21 1015.81 1016.25 1016.43 1016.70 1017.04 1017.40 1017.73 1017.82 1017.82 1018.14 1018.60 1019.30 1019.71 1020.37 1020.82 1021.31 1021.73 1022.16 1023.07 1024.07
1002.27 1003.25 1004.15 1004.81 1005.62 1006.47 1007.29 1008.00 1008.64 1009.16 1009.15 1009.55 1009.81 1009.89 1010.10 1010.55 1011.26 1011.82 1012.32 1013.00 1013.53 1014.03 1014.33 1014.86 1015.27 1015.67 1016.00 1016.39 1016.74 1017.04 1017.42 1017.70 1017.95 1018.57 1019.11 1019.67 1020.19 1020.75 1021.21 1021.85 1022.57 1023.15 1023.47
1001.74 1002.41 1003.26 1004.05 1004.77 1005.53 1006.32 1007.08 1007.74 1008.52 1009.11 1009.68 1009.94 1010.13 1010.39 1010.68 1010.87 1011.38 1012.34 1013.35 1014.33 1014.22 1013.94 1014.12 1014.49 1014.73 1015.17 1015.73 1016.21 1016.67 1017.01 1017.41 1017.97 1018.46 1018.99 1019.49 1020.01 1020.41 1021.12 1021.76 1022.32 1023.18 1024.15
1001.11 1002.02 1002.57 1003.27 1003.99 1004.67 1005.49 1006.29 1006.93 1007.63 1008.27 1008.86 1009.69 1010.15 1010.29 1010.58 1011.18 1011.77 1012.12 1012.16 1012.84 1013.22 1013.16 1013.24 1013.26 1013.57 1014.03 1014.60 1015.20 1015.90 1016.37 1016.98 1017.55 1018.16 1018.81 1019.30 1019.89 1020.40 1021.32 1022.16 1022.76 1023.16 1024.23
1000.23 1001.01 1001.80 1002.65 1003.53 1004.27 1004.88 1005.60 1006.38 1007.04 1007.64 1008.21 1008.97 1009.30 1010.12 1010.80 1011.28 1011.65 1011.98 1011.79 1011.78 1011.85 1012.03 1012.28 1012.51 1012.72 1013.17 1013.78 1014.60 1015.35 1016.10 1016.85 1017.45 1018.00 1018.61 1019.20 1019.89 1020.46 1021.25 1021.61 1023.19 1024.21 1024.08
999.39 1000.53 1001.11 1002.03 1002.71 1003.28 1004.03 1004.83 1005.44 1006.20 1006.83 1007.47 1007.89 1008.35 1008.66 1009.44 1009.86 1010.23 1010.66 1010.88 1010.80 1010.85 1010.94 1011.16 1011.42 1012.03 1012.65 1013.27 1014.06 1014.78 1015.44 1016.17 1016.90 1017.52 1018.23 1018.99 1019.59 1020.26 1020.67 1022.38 1023.83 1023.88 1023.86
998.52 999.57 1000.50 1001.05 1001.83 1002.62 1003.17 1003.79 1004.59 1005.14 1005.64 1006.26 1006.80 1007.64 1008.06 1008.65 1008.72 1008.92 1009.08 1009.20 1009.23 1009.33 1009.53 1010.07 1010.91 1011.33 1011.68 1012.51 1013.15 1014.01 1014.84 1015.68 1016.31 1016.81 1018.09 1018.79 1019.35 1020.12 1020.94 1022.05 1023.06 1024.03 1024.36
997.96 998.89 999.78 1000.43 1001.03 1001.74 1002.56 1003.00 1003.56 1004.20 1004.71 1005.22 1005.97 1006.78 1007.50 1007.74 1007.78 1007.74 1007.67 1007.80 1008.18 1008.50 1008.73 1009.12 1009.76 1010.25 1010.94 1011.30 1011.90 1012.52 1013.30 1014.07 1015.35 1017.33 1017.56 1018.60 1019.55 1020.41 1021.41 1022.06 1022.39 1023.88 1024.84
997.16 998.03 998.87 999.52 1000.32 1001.07 1001.73 1002.35 1002.78 1003.17 1003.67 1004.41 1005.17 1005.70 1006.50 1006.58 1006.54 1006.55 1006.65 1007.00 1007.40 1007.73 1008.12 1008.58 1008.92 1009.41 1010.11 1010.34 1010.91 1011.56 1012.26 1014.00 1014.60 1016.62 1018.01 1018.83 1020.30 1021.46 1022.20 1022.78 1023.87 1024.32 1024.75
996.62 997.25 998.13 998.88 999.65 1000.20 1000.78 1001.42 1002.06 1002.40 1002.76 1003.27 1003.76 1004.27 1004.77 1005.12 1005.45 1005.68 1005.89 1006.40 1006.95 1007.40 1007.72 1008.15 1008.59 1009.02 1009.51 1010.38 1010.82 1011.57 1012.53 1013.14 1013.68 1015.49 1017.69 1018.25 1020.22 1021.74 1023.06 1023.71 1024.03 1024.95 1024.96
996.26 996.78 997.33 998.17 998.94 999.52 1000.00 1000.56 1001.07 1001.65 1002.11 1002.34 1002.67 1003.00 1003.47 1004.06 1004.51 1004.86 1005.28 1005.91 1006.51 1007.08 1007.44 1008.01 1008.52 1009.01 1009.79 1010.46 1011.17 1012.75 1013.53 1014.53 1014.81 1016.45 1018.76 1019.48 1020.06 1021.80 1022.93 1023.79 1024.48 1024.89 1024.78
Wind_Speed
5 4 5 5 5 5 4 4 4 3 3 3 2 4 4 5 4 6 5 5 6 6 6 8 8 8 7 7 7 7 7 7 8 5 4 6 7 9 5 3 1 3 2
5 5 5 6 5 5 5 5 4 4 3 4 4 4 5 5 5 7 6 5 6 7 6 9 10 8 9 9 8 8 7 6 9 10 4 2 7 6 5 4 2 2 2
5 5 6 5 5 4 4 5 4 5 5 4 4 5 5 6 6 5 6 6 5 5 6 7 9 11 9 9 10 9 7 7 8 7 4 2 3 3 3 3 1 1 2
6 6 6 6 5 5 5 6 5 5 6 5 4 5 6 5 6 6 7 8 6 5 5 6 6 9 11 11 9 10 9 8 8 6 3 3 3 2 3 2 0 1 2
6 6 7 6 5 6 6 5 6 5 4 5 6 5 5 5 4 6 6 6 6 6 6 6 6 8 12 7 8 9 11 7 7 4 3 2 3 3 3 2 2 2 2
7 7 6 6 5 7 6 6 6 6 4 5 5 6 6 3 9 10 8 6 6 6 7 7 8 11 11 14 15 9 9 9 6 4 3 2 3 3 3 3 3 2 1
7 6 6 6 6 6 7 6 6 5 4 4 5 6 5 5 9 10 10 6 6 5 7 8 7 6 8 8 7 8 7 3 1 5 6 5 4 5 6 4 3 3 3
7 7 6 6 6 7 7 6 5 4 5 5 4 5 6 5 9 10 10 6 6 6 7 7 8 8 5 6 5 3 1 4 6 4 5 5 4 7 6 6 6 4 1
8 7 7 6 7 7 7 7 4 5 3 4 4 6 7 6 8 10 7 5 5 6 5 5 6 6 8 8 5 3 1 1 5 2 5 9 4 8 8 6 4 4 1
10 9 7 7 7 7 8 7 4 4 5 5 5 4 7 6 9 11 8 4 5 4 4 3 6 6 9 8 6 6 6 3 4 5 5 6 6 7 7 2 5 4 4
10 7 8 7 9 7 7 5 6 5 6 5 5 3 6 5 6 9 12 5 5 4 4 3 3 7 10 10 7 5 4 6 4 6 5 5 5 5 4 4 4 6 5
11 9 8 8 7 7 8 5 6 7 7 6 5 3 2 4 6 8 10 9 8 6 5 4 4 7 8 9 8 6 9 7 4 5 4 3 4 4 4 5 7 8 7
11 11 8 8 7 9 8 7 5 6 6 5 5 4 3 2 2 4 7 10 10 5 4 6 10 8 10 7 7 9 8 5 5 4 5 3 3 4 5 6 8 11 12
13 11 8 9 7 6 6 8 7 6 5 6 5 5 4 4 4 2 3 4 6 6 8 6 5 5 4 7 5 3 3 4 5 5 4 4 3 3 3 2 6 5 8
13 10 9 9 10 7 6 7 8 8 10 8 6 7 6 5 6 9 9 6 5 6 8 4 3 2 3 3 2 3 3 4 5 4 4 4 4 4 3 3 3 3 5
12 10 9 8 8 8 7 3 8 4 9 10 11 9 5 10 14 16 14 10 13 17 4 4 4 5 6 5 5 4 3 4 5 5 4 5 5 5 5 3 5 5 6
14 11 8 9 9 9 7 7 7 2 5 5 8 12 14 13 14 15 15 10 12 9 4 5 6 7 6 6 6 5 5 4 5 6 6 5 5 6 8 7 7 7 6
12 13 10 10 10 9 9 9 7 7 7 4 2 6 8 6 12 14 13 12 3 4 3 5 6 7 5 7 6 5 4 5 5 6 6 7 6 8 8 8 7 6 4
11 10 10 9 9 10 9 8 8 7 6 4 3 1 5 5 7 10 17 7 8 8 6 5 6 7 7 8 7 5 6 8 8 8 6 7 6 7 5 5 4 7 5
11 14 12 10 8 9 8 8 7 6 6 6 5 6 5 5 4 5 7 7 7 8 8 9 6 6 7 7 6 6 6 6 7 7 7 7 6 7 8 9 6 4 4
10 10 13 10 10 11 10 9 9 8 7 7 8 7 11 8 7 7 8 9 9 9 9 9 7 6 6 6 7 8 9 9 8 8 9 8 9 10 11 8 4 4 7
11 11 11 11 10 10 10 9 9 9 9 9 8 5 11 8 5 7 8 10 11 11 9 7 5 6 9 9 10 10 10 10 10 11 10 9 10 10 10 8 7 5 5
10 11 11 8 9 10 8 10 10 10 10 10 7 5 7 9 8 8 9 8 8 9 6 7 8 8 8 8 9 11 13 14 12 8 10 10 9 9 7 7 9 7 4
11 12 13 11 9 9 10 10 9 11 10 8 7 7 7 8 10 11 10 7 7 6 7 8 8 10 9 10 10 10 12 11 12 11 12 11 9 8 6 8 5 5 6
10 11 10 10 9 11 9 9 9 9 9 8 9 9 9 8 7 7 6 5 5 5 6 5 5 9 11 11 13 15 13 19 19 18 12 15 14 12 7 5 7 5 6
8 9 9 8 7 9 9 9 9 9 10 9 9 9 8 9 8 6 5 6 6 6 8 5 7 12 14 13 18 18 18 19 19 18 12 10 12 9 7 7 8 6 7
Wind_Direction
176 201 164 154 170 162 144 153 157 145 151 142 124 117 123 126 101 86 82 100 100 103 93 104 102 109 112 105 112 115 119 112 117 91 74 103 125 118 115 108 179 105 134
185 186 158 154 155 166 153 163 169 155 149 152 132 115 120 114 115 112 98 101 95 93 109 115 114 116 107 112 119 116 111 115 124 118 101 132 96 117 132 142 126 176 170
166 146 139 151 152 161 148 149 162 145 137 139 130 128 133 132 120 97 108 99 99 91 106 104 122 118 113 115 119 115 107 107 111 120 114 84 96 96 99 104 133 100 202
160 144 153 156 159 140 131 144 142 137 132 130 123 121 128 123 113 112 109 117 114 73 79 96 103 122 125 124 121 116 120 111 113 118 108 99 90 93 89 126 162 33 358
157 150 178 130 149 120 120 135 121 123 133 132 120 104 105 117 127 118 108 108 108 95 86 76 88 94 101 109 125 126 130 131 132 121 100 107 137 114 169 170 146 62 287
160 168 171 138 143 132 127 144 137 136 129 139 125 123 137 140 129 123 117 114 111 109 105 99 105 103 95 96 88 97 134 144 140 131 127 148 175 149 141 125 122 133 283
165 170 165 165 148 148 140 141 143 139 130 132 131 122 129 127 140 122 114 105 113 108 119 116 108 111 105 111 121 106 105 140 153 154 162 178 165 179 147 142 163 132 193
167 171 172 162 153 144 144 145 131 114 124 136 134 123 117 118 133 132 117 105 106 108 103 105 119 131 129 135 118 107 198 232 215 195 185 181 178 169 164 165 166 152 108
174 176 177 159 141 147 157 155 143 126 127 138 140 134 124 141 152 138 129 109 110 117 118 127 140 153 156 137 132 165 180 117 63 70 111 78 133 175 152 121 155 115 98
182 184 176 155 151 162 162 159 154 139 146 134 125 131 137 135 159 157 133 121 120 117 104 138 181 170 158 172 165 156 130 134 96 104 104 94 108 87 121 147 149 148 135
180 170 170 167 157 164 147 151 141 135 132 135 131 129 129 143 158 169 144 146 151 147 155 174 192 191 175 183 172 175 171 151 132 122 112 90 72 78 85 82 114 128 103
170 172 176 170 163 156 153 147 144 138 143 148 137 107 51 120 135 178 164 150 151 148 172 174 167 169 179 172 168 173 148 123 124 101 98 107 110 90 67 68 64 66 60
166 177 179 172 167 160 157 152 141 149 149 160 158 163 176 155 108 100 176 160 160 151 159 164 142 148 130 122 147 152 148 112 115 118 122 98 105 130 115 89 86 80 65
171 178 174 171 171 167 166 165 164 165 162 168 166 178 184 171 172 171 149 145 122 94 99 94 103 120 122 117 116 120 112 145 147 132 121 109 110 90 96 58 96 77 84
175 175 175 180 183 173 178 177 181 189 178 175 187 178 165 191 213 183 169 170 174 149 111 99 118 120 138 139 119 128 130 150 131 119 129 128 114 113 96 90 108 100 103
178 176 176 172 178 181 169 146 37 9 199 195 168 163 199 202 172 182 192 189 147 145 110 152 181 188 180 173 173 174 173 153 143 130 132 137 135 131 120 85 74 94 108
185 175 170 168 171 173 179 181 191 23 91 185 197 193 182 186 182 185 191 169 161 147 161 176 183 186 194 184 177 172 175 181 148 147 150 146 134 127 128 129 125 122 125
184 171 170 176 177 176 181 188 188 189 195 200 187 209 238 224 186 183 139 112 124 278 190 174 191 191 181 181 182 180 161 144 154 153 150 147 139 140 138 142 140 135 139
172 176 175 176 178 179 180 179 186 186 187 168 125 126 101 148 139 141 164 179 184 203 209 206 194 193 191 181 177 166 161 169 166 158 147 144 142 137 114 105 113 121 142
181 175 170 172 167 173 177 178 180 186 187 185 190 203 143 127 169 169 192 207 200 208 206 210 207 201 183 173 161 159 156 153 156 154 148 143 135 130 124 122 124 161 119
179 170 170 167 175 183 180 182 184 185 195 196 207 192 178 180 190 179 189 203 209 209 209 210 195 174 170 158 158 163 165 166 162 150 149 143 139 134 136 127 120 154 123
173 171 175 181 177 184 186 181 182 190 196 199 208 188 178 204 189 193 198 204 208 211 208 195 185 189 174 171 166 162 162 161 160 156 150 148 140 136 137 129 131 129 123
164 165 176 178 182 180 178 185 190 197 206 206 200 175 178 202 213 212 211 206 199 206 182 172 179 169 169 168 169 170 167 166 150 152 140 137 136 131 109 117 133 133 134
162 167 177 182 178 179 187 192 195 196 196 193 195 189 197 205 208 213 217 205 192 189 183 189 189 179 171 169 165 161 146 143 128 126 130 120 114 104 92 121 110 129 139
165 166 171 176 177 187 188 188 189 200 204 188 192 198 199 206 206 210 208 181 182 171 172 166 168 167 159 150 148 147 138 139 131 126 125 122 117 113 126 134 135 165 148
166 172 173 172 175 184 189 189 198 193 197 206 207 206 194 195 206 202 166 157 156 157 151 152 144 141 139 129 124 112 109 109 104 102 108 116 117 131 138 150 158 168 137